Weather History for Superior, WI

Change the Weather History Date:

Tuesday, March 19, 2013

  Actual Average Record
Temperature  
Mean Temperature 16 °F -  
Max Temperature 24 °F 36 °F 57 °F (2012)
Min Temperature 9 °F 21 °F -6 °F (1950)
Degree Days  
Heating Degree Days 49    
Moisture  
Dew Point 4 °F    
Average Humidity 60    
Maximum Humidity 76    
Minimum Humidity 45    
Precipitation  
Precipitation 0.00 in - - ()
Sea Level Pressure  
Sea Level Pressure 29.87 in    
Wind  
Wind Speed 20 mph (WNW)    
Max Wind Speed 25 mph    
Max Gust Speed 36 mph    
Visibility 9 miles    
Events Snow    
Averages and records for this station are not official NWS values.
T = Trace of Precipitation, MM = Missing Value Source: NWS Daily Summary

Daily Weather History Graph

Daily Weather History Graph

Search for Another Location

Airport:

Trip Planner

Search our weather history database for the weather conditions in past years. The results will help you decide how hot, cold, wet, or windy it might be!

Date:

Astronomy

Mar. 19, 2013 Rise Set
Actual Time 7:12 AM CDT 7:20 PM CDT
Civil Twilight 6:42 AM CDT 7:50 PM CDT
Nautical Twilight 6:07 AM CDT 8:25 PM CDT
Astronomical Twilight 5:30 AM CDT 9:02 PM CDT
Moon 11:43 AM CDT (3/19) 2:27 AM CDT (3/19)
Length of Visible Light 13h 07m
Length of Day
12h 07m
Waxing Crescent, 50% of the Moon is Illuminated
Mar 19
Waxing Crescent
Mar 19
First Quarter
Mar 27
Full
Apr 2
Last Quarter
Apr 10
New

Hourly Weather History & Observations

Time (CDT) Temp. Windchill Dew Point Humidity Pressure Visibility Wind Dir Wind Speed Gust Speed Precip Events Conditions
12:15 AM 18.1 °F 2.0 °F 11.3 °F 75% 29.61 in 10.0 mi WNW 19.6 mph 26.5 mph N/A Snow Light Snow
12:35 AM 17.2 °F 0.8 °F 10.4 °F 75% 29.62 in 7.0 mi West 19.6 mph 29.9 mph N/A   Overcast
1:15 AM 15.6 °F -2.2 °F 9.0 °F 75% 29.63 in 7.0 mi WNW 21.9 mph 32.2 mph N/A Snow Light Snow
1:55 AM 14.9 °F -4.3 °F 8.4 °F 76% 29.64 in 5.0 mi WNW 25.3 mph 35.7 mph N/A   Haze
2:15 AM 14.9 °F -3.1 °F 8.6 °F 76% 29.65 in 5.0 mi WNW 21.9 mph 29.9 mph N/A Snow Light Snow
2:35 AM 14.7 °F -4.5 °F 8.2 °F 75% 29.66 in 5.0 mi WNW 25.3 mph 33.4 mph N/A   Haze
2:55 AM 14.5 °F -4.4 °F 7.7 °F 74% 29.67 in 7.0 mi WNW 24.2 mph 29.9 mph N/A   Overcast
3:15 AM 14.4 °F -4.2 °F 7.5 °F 74% 29.67 in 7.0 mi WNW 23.0 mph 33.4 mph N/A   Overcast
3:35 AM 14.0 °F -4.3 °F 7.0 °F 74% 29.68 in 10.0 mi WNW 21.9 mph 32.2 mph N/A   Overcast
3:55 AM 13.8 °F -4.5 °F 6.1 °F 71% 29.69 in 10.0 mi NW 21.9 mph 34.5 mph N/A   Overcast
4:15 AM 12.7 °F -4.1 °F 5.4 °F 72% 29.69 in 10.0 mi WNW 17.3 mph - N/A   Scattered Clouds
4:35 AM 12.7 °F -4.1 °F 5.4 °F 72% 29.70 in 10.0 mi WNW 17.3 mph 26.5 mph N/A   Clear
4:55 AM 12.2 °F -5.8 °F 4.8 °F 72% 29.71 in 10.0 mi West 19.6 mph 25.3 mph N/A   Clear
5:15 AM 12.0 °F -4.0 °F 4.5 °F 72% 29.72 in 10.0 mi West 15.0 mph 28.8 mph N/A   Scattered Clouds
5:35 AM 11.8 °F -3.0 °F 4.1 °F 71% 29.73 in 10.0 mi West 12.7 mph - N/A   Mostly Cloudy
5:55 AM 11.3 °F -3.6 °F 3.9 °F 72% 29.74 in 10.0 mi West 12.7 mph 17.3 mph N/A   Mostly Cloudy
6:15 AM 11.3 °F -4.3 °F 3.7 °F 72% 29.75 in 10.0 mi WNW 13.8 mph 21.9 mph N/A   Scattered Clouds
6:35 AM 10.9 °F -3.4 °F 3.6 °F 72% 29.75 in 10.0 mi WNW 11.5 mph 20.7 mph N/A   Clear
6:55 AM 10.9 °F -5.9 °F 3.6 °F 72% 29.77 in 10.0 mi WNW 16.1 mph 24.2 mph N/A   Clear
7:15 AM 10.8 °F -9.0 °F 3.9 °F 74% 29.78 in 10.0 mi NW 23.0 mph 29.9 mph N/A   Clear
7:35 AM 10.4 °F -9.9 °F 3.7 °F 74% 29.79 in 7.0 mi WNW 24.2 mph 32.2 mph N/A   Scattered Clouds
7:55 AM 10.4 °F -9.5 °F 3.7 °F 74% 29.81 in 7.0 mi WNW 23.0 mph 34.5 mph N/A   Mostly Cloudy
8:15 AM 10.2 °F -9.3 °F 3.2 °F 73% 29.82 in 10.0 mi WNW 21.9 mph 27.6 mph N/A   Scattered Clouds
8:35 AM 9.9 °F -9.3 °F 2.5 °F 72% 29.83 in 10.0 mi WNW 20.7 mph 28.8 mph N/A   Clear
8:55 AM 9.7 °F -8.6 °F 2.1 °F 71% 29.85 in 10.0 mi WNW 18.4 mph 25.3 mph N/A   Clear
9:15 AM 9.5 °F -7.8 °F 1.8 °F 71% 29.86 in 10.0 mi WNW 16.1 mph 23.0 mph N/A   Clear
9:35 AM 10.0 °F -5.9 °F 1.8 °F 69% 29.86 in 10.0 mi WNW 13.8 mph - N/A   Clear
9:55 AM 10.9 °F -5.4 °F 1.9 °F 67% 29.86 in 10.0 mi WNW 15.0 mph - N/A   Clear
10:15 AM 11.7 °F -3.8 °F 2.1 °F 66% 29.87 in 10.0 mi WNW 13.8 mph - N/A   Clear
10:35 AM 12.9 °F -1.6 °F 2.3 °F 63% 29.87 in 10.0 mi WNW 12.7 mph 21.9 mph N/A   Clear
10:55 AM 15.4 °F 0.4 °F 3.2 °F 59% 29.88 in 10.0 mi NW 15.0 mph 20.7 mph N/A   Clear
11:15 AM 16.9 °F 0.8 °F 3.9 °F 57% 29.88 in 10.0 mi NW 18.4 mph 24.2 mph N/A   Clear
11:35 AM 17.6 °F 2.7 °F 3.9 °F 55% 29.89 in 10.0 mi WNW 16.1 mph 27.6 mph N/A   Clear
11:55 AM 18.7 °F 4.6 °F 4.1 °F 53% 29.89 in 10.0 mi WNW 15.0 mph 25.3 mph N/A   Clear
12:15 PM 19.8 °F 3.7 °F 4.3 °F 51% 29.89 in 10.0 mi WNW 20.7 mph 26.5 mph N/A   Clear
12:35 PM 21.0 °F 5.7 °F 5.0 °F 50% 29.89 in 10.0 mi WNW 19.6 mph 32.2 mph N/A   Clear
12:55 PM 21.7 °F 7.1 °F 5.7 °F 50% 29.90 in 10.0 mi WNW 18.4 mph 27.6 mph N/A   Clear
1:15 PM 21.9 °F 7.3 °F 5.2 °F 49% 29.91 in 10.0 mi WNW 18.4 mph 31.1 mph N/A   Clear
1:35 PM 22.6 °F 8.3 °F 5.4 °F 48% 29.91 in 10.0 mi WNW 18.4 mph 25.3 mph N/A   Clear
1:55 PM 22.8 °F 7.0 °F 5.5 °F 48% 29.91 in 10.0 mi West 23.0 mph 32.2 mph N/A   Clear
2:15 PM 22.6 °F 6.4 °F 5.7 °F 48% 29.91 in 7.0 mi WNW 24.2 mph 32.2 mph N/A   Clear
2:35 PM 23.4 °F 7.7 °F 6.1 °F 48% 29.91 in 7.0 mi WNW 23.0 mph 29.9 mph N/A   Clear
2:55 PM 23.5 °F 8.0 °F 5.5 °F 46% 29.91 in 10.0 mi NW 23.0 mph 31.1 mph N/A   Clear
3:15 PM 23.5 °F 8.0 °F 5.2 °F 46% 29.92 in 10.0 mi WNW 23.0 mph 29.9 mph N/A   Clear
3:35 PM 23.9 °F 8.4 °F 5.2 °F 45% 29.93 in 10.0 mi WNW 23.0 mph 28.8 mph N/A   Clear
3:55 PM 23.9 °F 8.4 °F 6.1 °F 47% 29.93 in 10.0 mi WNW 23.0 mph 27.6 mph N/A   Clear
4:15 PM 23.5 °F 8.3 °F 4.8 °F 45% 29.94 in 10.0 mi West 21.9 mph 28.8 mph N/A   Clear
4:35 PM 23.0 °F 8.0 °F 5.2 °F 47% 29.95 in 10.0 mi WNW 20.7 mph 31.1 mph N/A   Clear
4:55 PM 23.7 °F 8.5 °F 5.0 °F 45% 29.96 in 10.0 mi WNW 21.9 mph 28.8 mph N/A   Clear
5:15 PM 23.4 °F 7.1 °F 5.2 °F 46% 29.97 in 10.0 mi WNW 25.3 mph 29.9 mph N/A   Clear
5:35 PM 23.5 °F 8.0 °F 5.0 °F 45% 29.97 in 10.0 mi NW 23.0 mph 26.5 mph N/A   Clear
5:55 PM 22.8 °F 8.1 °F 5.0 °F 47% 29.98 in 10.0 mi NW 19.6 mph 31.1 mph N/A   Clear
6:15 PM 22.5 °F 7.6 °F 4.6 °F 46% 29.98 in 10.0 mi WNW 19.6 mph 29.9 mph N/A   Clear
6:35 PM 21.9 °F 6.5 °F 4.3 °F 47% 29.99 in 10.0 mi WNW 20.7 mph 29.9 mph N/A   Clear
6:55 PM 21.2 °F 6.0 °F 3.2 °F 46% 30.00 in 10.0 mi WNW 19.6 mph 29.9 mph N/A   Clear
7:15 PM 20.3 °F 4.8 °F 3.4 °F 48% 30.01 in 10.0 mi WNW 19.6 mph 26.5 mph N/A   Clear
7:35 PM 19.6 °F 5.7 °F 2.3 °F 47% 30.01 in 10.0 mi WNW 15.0 mph 25.3 mph N/A   Clear
7:55 PM 18.9 °F 4.3 °F 2.3 °F 49% 30.03 in 10.0 mi WNW 16.1 mph 21.9 mph N/A   Clear
8:35 PM 17.2 °F 1.7 °F 1.6 °F 50% 30.04 in 10.0 mi WNW 17.3 mph 26.5 mph N/A   Clear
8:55 PM 16.3 °F 2.7 °F 0.3 °F 49% 30.04 in 10.0 mi West 12.7 mph 27.6 mph N/A   Clear
9:15 PM 15.1 °F -0.1 °F -0.4 °F 50% 30.05 in 10.0 mi WNW 15.0 mph - N/A   Clear
9:35 PM 14.4 °F -3.0 °F -0.0 °F 53% 30.06 in 10.0 mi WNW 19.6 mph 26.5 mph N/A   Clear
9:55 PM 13.5 °F -4.6 °F -0.4 °F 54% 30.06 in 10.0 mi WNW 20.7 mph 24.2 mph N/A   Clear
10:15 PM 12.7 °F -5.1 °F -0.4 °F 56% 30.06 in 10.0 mi WNW 19.6 mph 29.9 mph N/A   Clear
10:35 PM 12.0 °F -6.9 °F -0.9 °F 56% 30.06 in 10.0 mi WNW 21.9 mph 28.8 mph N/A   Clear
10:55 PM 11.3 °F -7.4 °F -1.5 °F 57% 30.06 in 10.0 mi NW 20.7 mph 25.3 mph N/A   Clear
11:15 PM 10.9 °F -7.0 °F -1.7 °F 57% 30.06 in 10.0 mi WNW 18.4 mph 25.3 mph N/A   Clear
11:35 PM 10.4 °F -6.6 °F -2.4 °F 56% 30.07 in 10.0 mi WNW 16.1 mph 21.9 mph N/A   Clear
11:55 PM 10.2 °F -5.0 °F -2.9 °F 55% 30.07 in 10.0 mi WNW 12.7 mph 19.6 mph N/A   Clear